Reflectivity
-20 -20 -20 -20 -20 -20 -20 -20 -20 -20 -20 -20 -20 -20 -20 -20 -20 -20 -20 -20 -20 -20 -20 -20 -20 -20 -20 -20 -20 -20 -20 -20 -20 -20 -20 -20 -20 -20 -20 -20 -20 -20 -20
-20 -20 -20 -20 -20 -20 -20 -20 -20 -20 -20 -20 -20 -20 -20 -20 -20 -20 -20 -20 -20 -20 -20 -20 -20 -20 -20 -20 -20 -20 -20 -20 -20 -20 -20 -20 -20 -20 -20 -20 -20 -20 -20
-20 -20 -20 -20 -20 -20 -20 -20 -20 -20 -20 -20 -20 -20 -20 -20 -20 -20 -20 -20 -20 -20 -20 -20 -20 -20 -20 -20 -20 -20 -20 -20 -20 -20 -20 -20 -20 -20 -20 -20 -20 -20 -20
-20 -20 -20 -20 -20 -20 -20 -20 -20 -20 -20 -20 -20 -20 -20 -20 -20 -20 -20 -20 -20 -20 -20 -20 -20 -20 -20 -20 -20 -20 -20 -20 -20 -20 -20 -20 -20 -20 -20 -20 -20 -20 -20
-20 -20 -20 -20 -20 -20 -20 -20 -20 -20 -20 -20 -20 -20 -20 -20 -20 -20 -20 -20 -20 -20 -20 -20 -20 -20 -20 -20 -20 -20 -20 -20 -20 -20 -20 -20 -20 -20 -20 -20 -20 -20 -20
-20 -20 -20 -20 -20 -20 -20 -20 -20 -20 -20 -20 -20 -20 -20 -20 -20 -20 -20 -20 -20 -20 -20 -20 -20 -20 -20 -20 -20 -20 -20 -20 -20 -20 -20 -20 -20 -20 -20 -20 -20 -20 -20
-20 -20 -20 -20 -20 -20 -20 -20 -20 -20 -20 -20 -20 -20 -20 -20 -20 -20 -20 -20 -20 -20 -20 -20 -20 -20 -20 -20 -20 -20 -20 -20 -20 -20 -20 -20 -20 -20 -20 -20 -20 -20 -20
-20 -20 -20 -20 -20 -20 -20 -20 -20 -20 -20 -20 -20 -20 -20 -20 -20 -20 -20 -20 -20 -20 -20 -20 -20 -20 -20 -20 -20 -20 -20 -20 -20 -20 -20 -20 -20 -20 -20 -20 -20 -20 -20
-20 -20 -20 -20 -20 -20 -20 -20 -20 -20 -20 -20 -20 -20 -20 -20 -20 -20 -20 -20 -20 -20 -20 -20 -20 -20 -20 -20 -20 -20 -20 -20 -20 -20 -20 -20 -20 -20 -20 -20 -20 -20 -20
-20 -20 -20 -20 -20 -20 -20 -20 -20 -20 -20 -20 -20 -20 -20 -20 -20 -20 -20 -20 -20 -20 -20 -20 -20 -20 -20 -20 -20 -20 -20 -20 -20 -20 -20 -20 -20 -20 -20 -20 -13 6 4
-20 -20 -20 -20 -20 -20 -20 -20 -20 -20 -20 -20 -20 -20 -20 -20 -20 -20 -20 -20 -20 -20 -20 -20 -20 -20 -20 -20 -15 -11 -10 -5 18 5 -20 -14 -14 -20 -13 -20 4 34 3
-20 -20 -20 -20 -20 -20 -20 -20 -20 -20 -20 -20 -20 -20 -20 -20 -20 -13 -20 -20 -20 -20 -20 -20 -20 -20 -12 16 13 15 12 13 6 -2 13 -13 -9 -16 -1 -20 -20 14 7
-20 -20 -20 -20 -20 -20 -20 -5 -20 -20 -20 -20 -20 -20 -20 -20 -19 -13 -20 -20 -20 -14 -6 -20 -20 -20 9 7 8 12 16 6 19 16 13 10 5 7 14 -9 -17 -14 -20
-20 -20 -20 -20 -20 -20 -18 -20 -20 -7 -20 -20 -20 -20 -20 -20 -20 -20 -20 -20 -15 7 -14 13 -15 11 12 13 13 13 -3 4 13 9 1 5 1 14 16 19 17 4 -5
-20 -20 -20 -20 -20 -20 -13 -20 -20 -20 -18 -20 -20 -20 -20 -20 -20 -2 10 12 10 16 14 7 16 16 15 -16 -20 -20 -20 -20 -20 -20 -20 -20 -16 -20 -1 4 18 26 29
-20 -20 -13 -20 -20 -20 -20 -20 6 -5 7 10 14 3 -15 5 9 11 12 8 15 17 -1 -4 6 5 1 -20 -20 -20 -20 -15 -7 -7 -9 14 -6 7 0 4 4 14 14
-20 -20 -20 -0 -20 -20 -20 -20 -20 -20 -20 -20 3 -19 -20 -19 6 10 9 6 16 12 -5 3 0 -18 -20 -20 -20 -20 -20 -20 -20 -20 -20 -20 -20 3 7 9 19 28 17
-20 -20 -20 -20 -20 -20 -20 -20 -20 -20 -20 -20 -8 -16 -9 -20 -12 17 16 17 5 -0 6 -20 -20 -20 -20 -20 -20 -20 -19 -20 -20 -16 -20 -20 -20 -20 -17 -9 12 -1 -19
-20 -20 -20 -20 -19 -7 -20 -20 -20 -20 -19 -20 -20 -3 -2 3 7 6 15 -2 1 -19 -20 -20 -20 -20 -20 -18 -20 -17 -8 -16 -14 -20 -20 -20 -20 -20 -19 -6 -20 3 -18
-20 -20 -20 -20 -20 -20 -20 -20 -10 3 13 8 5 2 6 6 6 19 -19 -20 -20 -20 -20 -20 -20 -20 -20 -20 -20 -20 -20 6 -13 -20 -20 -20 -20 -20 -5 -19 -20 -20 -20
-20 -20 -20 -20 -20 -20 -20 -20 -12 6 21 12 19 3 18 -1 -7 -20 -20 -20 -15 -20 -20 -20 -20 -20 -7 -19 -20 -20 -20 6 -18 -20 -20 -20 -20 -20 -20 -20 -20 -20 -11
-20 -20 -20 -20 -20 -20 -20 -20 -19 1 11 11 7 18 18 1 7 11 6 -2 0 10 9 -1 -13 3 -20 -17 -19 -5 -20 -20 -20 -20 -20 -20 -20 -20 -20 -20 -3 -9 -20
-20 -20 -20 -20 -20 -20 -20 -20 -20 -20 -20 -20 -20 -20 -20 -20 -20 -20 -20 -20 -14 -20 -20 -20 -10 -15 6 -20 5 1 -20 -20 -20 -20 -20 -18 -19 -20 10 3 -1 -7 -20
-20 -20 -20 -20 -20 -20 -20 -20 -19 -16 -20 -20 -20 -20 -20 -20 -20 -20 -20 -20 -20 -20 -20 -20 -20 -20 -20 -20 -16 -19 -19 -20 -20 -20 -20 -19 -3 -12 -17 -20 -20 -20 -20
-20 -20 -20 -20 -20 -20 -18 -20 -20 -20 -20 -20 -20 -20 -20 -20 -20 -20 -20 -20 -20 -20 -20 -20 -20 -20 -20 -20 -20 -20 -20 -20 -20 -20 -20 -20 -20 -20 -20 -20 -20 -20 -20
-13 -20 -20 -20 -20 -20 -10 -9 -20 -20 -11 -11 10 -0 -20 -20 -20 -20 -20 -20 -20 -20 -20 -20 -20 -20 -20 -20 -20 -19 -20 -20 -20 7 -3 -20 -20 -20 -11 -7 -20 -14 -20
Wind_Speed
19 18 17 15 14 13 10 10 10 8 9 7 8 8 8 9 8 9 8 7 8 6 5 7 8 5 4 4 3 2 3 4 4 4 3 2 4 6 5 8 7 7 7
19 18 18 15 15 14 13 11 11 11 8 9 7 9 10 10 10 11 10 9 10 9 9 7 9 4 6 5 4 6 5 4 4 5 3 3 6 5 5 6 7 8 8
18 18 16 15 14 14 14 12 11 11 8 9 8 10 12 11 10 10 11 11 10 11 11 10 11 6 7 5 5 6 4 3 4 4 4 3 4 3 4 4 5 6 5
18 17 16 16 15 15 15 14 13 12 11 12 12 12 12 10 11 11 12 12 12 11 11 11 12 11 13 10 7 8 6 5 5 5 5 5 5 4 3 4 5 5 8
18 17 17 16 16 15 14 14 14 14 14 14 12 12 11 11 10 12 12 12 12 12 11 12 13 14 17 15 9 9 8 8 6 8 8 4 4 4 6 4 9 7 6
19 19 18 16 16 16 15 14 14 14 15 14 15 15 14 11 14 17 15 12 13 13 13 12 14 15 16 18 20 21 14 12 12 9 10 12 14 10 6 9 8 4 7
17 16 16 15 15 16 15 14 15 15 14 15 15 15 15 15 17 20 20 13 12 13 14 13 12 11 15 14 16 20 19 20 23 15 14 15 15 13 11 8 13 11 13
15 15 15 15 16 15 14 15 14 13 15 14 14 14 14 13 15 18 20 17 14 15 15 15 16 16 14 13 13 14 15 18 17 14 20 21 17 13 13 15 16 14 10
16 17 16 16 16 15 16 16 15 13 14 14 14 15 15 15 16 18 15 14 16 17 15 15 17 18 16 14 14 16 17 17 11 20 23 24 22 17 17 8 8 8 11
16 18 16 16 17 17 17 17 14 14 14 11 13 14 16 15 15 19 17 11 14 11 14 17 18 19 14 15 14 15 19 16 14 14 11 17 22 22 15 16 14 12 12
10 10 13 16 18 16 15 13 12 13 12 13 13 12 14 14 14 18 20 14 13 12 13 12 11 15 19 18 20 18 20 17 17 14 15 13 13 14 13 13 18 15 14
8 11 12 13 11 11 14 12 12 12 12 11 11 10 9 11 14 16 20 23 18 14 13 11 11 15 17 20 17 21 21 16 13 13 13 14 12 10 11 14 19 18 17
4 8 10 10 11 12 13 12 10 11 11 10 9 9 8 7 8 17 21 22 23 13 13 13 12 12 12 9 14 16 13 10 10 12 14 15 14 15 14 14 16 19 21
6 3 5 6 7 10 9 9 9 10 10 9 8 8 7 6 7 7 9 10 17 10 14 11 7 6 8 8 5 7 7 8 10 11 13 14 13 11 13 11 13 13 15
5 4 2 4 6 5 4 0 6 7 8 9 10 8 7 7 8 10 9 8 8 9 4 3 5 5 6 6 5 6 5 5 7 9 11 12 12 12 13 12 13 13 16
5 3 2 1 3 5 6 4 10 5 4 2 2 6 2 3 9 8 7 7 7 12 3 3 2 3 3 3 3 4 3 5 6 8 8 10 11 12 12 13 13 15 16
2 5 3 2 3 6 6 7 5 3 14 15 11 11 7 10 8 10 10 10 7 6 1 1 0 2 2 3 3 3 4 5 7 7 8 10 11 13 15 14 10 9 13
5 5 4 3 3 5 6 6 5 5 5 4 11 10 11 11 10 9 10 7 3 5 2 2 1 0 1 2 3 3 4 4 6 7 9 11 12 12 12 12 11 12 14
4 3 3 3 3 4 5 7 6 6 6 6 4 6 5 9 9 10 5 3 3 2 2 1 1 2 3 3 4 4 4 5 5 5 8 9 11 10 10 8 5 9 4
3 5 4 4 4 7 6 7 8 7 6 5 5 3 2 3 4 3 3 2 2 1 1 2 2 3 3 3 3 3 5 5 5 5 6 8 6 5 4 4 4 6 6
4 4 6 6 7 6 7 9 8 9 6 6 5 2 3 5 5 4 4 3 3 1 1 1 2 3 3 3 3 3 4 4 5 5 4 5 4 4 5 4 4 4 5
5 5 6 7 7 8 9 8 8 7 7 8 7 7 11 6 5 5 5 5 6 6 6 6 5 5 6 6 6 4 5 5 5 4 4 3 3 3 2 3 3 2 6
5 7 8 8 9 12 10 8 8 8 7 7 7 7 7 6 6 6 6 6 6 6 7 7 6 6 6 7 7 7 7 7 6 5 4 3 3 2 1 1 0 1 1
4 7 8 7 7 9 10 10 9 9 8 8 8 8 6 6 6 7 7 6 7 7 7 7 7 10 7 6 6 6 6 7 7 6 5 3 3 2 0 1 2 3 5
7 7 8 9 9 9 8 8 9 9 9 7 7 7 6 6 6 7 7 7 7 8 9 8 7 11 11 13 15 16 15 13 9 8 5 3 5 5 3 3 3 3 3
8 9 8 8 9 9 10 7 9 10 10 7 7 7 7 7 7 6 7 8 7 7 9 8 11 16 17 13 17 19 13 14 12 8 4 4 5 4 4 4 5 3 4
Wind_Direction
192 193 195 199 201 197 188 188 189 183 197 197 189 196 195 195 193 195 200 192 205 219 212 211 234 203 220 215 217 194 213 167 211 289 229 259 210 219 230 221 224 222 230
190 192 197 196 194 198 199 189 187 191 188 200 186 195 203 203 198 201 208 204 203 212 224 223 241 218 226 209 209 225 217 199 193 249 251 256 218 217 226 217 223 225 223
190 192 194 195 192 195 200 196 189 191 174 194 191 203 209 210 204 203 208 209 209 213 213 219 233 220 239 217 206 228 231 196 194 217 257 248 245 203 231 232 219 223 228
189 192 192 194 195 199 201 201 197 193 188 195 204 212 212 206 209 207 208 211 213 217 213 216 224 220 233 231 217 219 217 222 200 210 232 241 227 228 213 209 242 216 230
186 191 196 194 195 199 203 201 201 202 203 203 203 213 210 206 208 211 210 213 215 218 216 219 225 224 222 224 221 229 207 221 219 231 242 222 216 201 209 202 229 235 225
188 194 194 192 194 198 200 202 201 205 208 207 212 209 212 211 207 204 205 211 215 219 222 222 229 226 228 221 221 231 216 223 232 228 244 244 246 235 225 223 227 194 252
188 194 194 194 197 200 200 195 202 206 205 211 212 213 216 215 204 205 207 215 216 221 226 229 231 231 230 234 232 238 239 230 229 233 240 243 247 229 221 216 224 221 231
187 191 192 191 196 198 198 201 203 203 207 211 216 216 220 221 205 207 208 218 227 228 227 228 233 238 231 223 233 237 238 240 235 235 244 252 246 243 221 224 231 234 252
187 194 193 192 193 193 199 203 203 200 207 213 215 215 218 223 206 205 196 219 228 235 234 230 233 238 236 213 229 239 247 248 232 235 239 246 249 231 223 220 227 212 239
196 196 190 190 195 196 200 205 203 204 212 210 217 217 217 222 206 203 197 218 231 235 239 241 230 235 226 209 223 237 250 256 251 250 243 248 247 251 233 228 240 228 240
190 181 189 196 199 198 199 202 203 204 208 214 219 219 219 214 219 199 199 215 227 234 238 242 241 221 224 220 215 234 244 255 252 249 257 253 247 241 237 223 232 232 236
170 184 191 196 198 195 196 198 201 202 209 214 216 223 222 220 207 201 204 210 220 228 236 239 242 228 222 221 222 236 246 251 256 259 261 263 261 249 235 226 222 226 226
178 196 185 176 190 197 195 197 196 200 207 212 216 221 221 204 207 201 206 213 223 230 237 241 243 240 238 244 242 250 252 256 255 259 260 261 258 260 251 238 229 232 233
73 95 176 186 193 201 199 193 198 201 208 214 213 217 212 203 204 197 213 222 233 229 248 255 268 271 263 261 257 233 224 232 240 252 260 266 274 273 265 249 235 227 232
35 31 47 186 188 158 92 346 212 210 212 205 213 204 198 205 210 204 205 205 214 220 211 211 241 247 257 259 256 256 253 227 234 246 256 265 268 269 264 264 251 242 247
24 1 343 282 173 160 156 118 50 19 3 43 227 173 86 76 138 145 143 144 153 143 152 199 216 227 242 265 274 288 293 305 311 311 296 286 282 278 274 265 266 253 244
359 294 277 267 187 159 157 159 133 54 73 52 61 89 106 131 116 122 115 99 109 116 169 144 305 0 356 351 345 329 311 311 311 301 300 298 294 290 287 281 275 281 270
329 276 273 265 193 158 155 144 141 136 113 70 33 57 63 85 91 113 120 97 62 39 72 121 135 55 341 294 276 272 274 274 307 305 300 301 296 288 285 287 284 276 273
3 352 354 65 71 98 120 132 126 109 103 107 108 65 57 63 63 80 76 85 118 122 125 123 211 236 260 266 275 280 278 280 282 293 304 309 307 294 289 291 310 313 282
78 82 67 80 76 100 99 108 104 97 96 98 92 90 74 27 50 40 60 82 89 107 178 235 251 255 273 277 274 271 304 299 300 293 309 320 321 344 354 358 1 40 50
124 90 92 78 71 72 89 104 105 107 95 86 75 50 38 94 73 51 42 34 26 350 297 304 325 323 331 319 276 277 297 288 282 299 316 325 328 346 352 347 9 22 70
144 132 114 106 101 89 90 89 95 92 94 98 91 69 69 67 64 58 41 23 8 16 11 10 18 16 1 348 342 337 312 306 308 308 300 306 327 341 326 339 5 104 118
156 134 123 112 111 110 98 94 92 87 86 75 70 66 59 61 55 50 43 28 21 23 19 21 16 5 1 358 352 346 340 334 328 312 290 305 310 284 350 54 136 127 129
105 117 116 108 109 112 113 108 97 86 89 79 73 67 52 48 52 50 43 36 36 37 31 30 23 12 353 351 347 345 333 335 310 292 303 295 266 249 198 134 116 106 107
97 100 106 110 104 102 93 94 103 95 81 79 84 81 72 62 53 49 43 43 37 34 32 26 20 14 5 2 3 356 339 318 310 305 291 257 248 231 207 185 177 142 121
84 89 87 85 92 93 92 87 92 91 90 80 70 67 67 65 52 44 43 39 40 37 34 29 25 24 18 11 357 338 331 336 342 324 289 248 243 241 239 209 195 186 155